Oxford, NC

2:40 AM EDT on April 27, 2018 (GMT -0400)
Henderson-Oxford

Weather History for KHNZ - June, 2014

Change the Weather History Date:

Monday, June 16, 2014

  Actual Average (KTDF) Record (KTDF)
Temperature  
Mean Temperature 80 °F -  
Max Temperature 93 °F 85 °F 95 °F (1981)
Min Temperature 66 °F 63 °F 50 °F (1961)
Cooling Degree Days 14    
Growing Degree Days 30 (Base 50)    
Moisture  
Dew Point 64 °F    
Average Humidity 65    
Maximum Humidity 95    
Minimum Humidity 32    
Precipitation  
Precipitation 0.00 in - - ()
Sea Level Pressure  
Sea Level Pressure 30.15 in    
Wind  
Wind Speed 3 mph (WSW)    
Max Wind Speed 9 mph    
Max Gust Speed -    
Visibility 9 miles    
Events      
Averages and records for this station are not official NWS values.
T = Trace of Precipitation, MM = Missing Value Source: NWS Daily Summary

Daily Weather History Graph

Daily Weather History Graph

Search for Another Location

Airport or City:

Astronomy

Jun. 16, 2014 Rise Set
Actual Time 5:55 AM EDT 8:33 PM EDT
Civil Twilight 5:25 AM EDT 9:04 PM EDT
Nautical Twilight 4:47 AM EDT 9:42 PM EDT
Astronomical Twilight 4:05 AM EDT 10:24 PM EDT
Moon 11:31 PM EDT (6/16) 9:51 AM EDT (6/16)
Length of Visible Light 15h 38m
Length of Day
14h 38m
Waning Gibbous, 83% of the Moon is Illuminated
Jun 16
Waning Gibbous
Jun 19
Last Quarter
Jun 27
New
Jul 5
First Quarter
Jul 12
Full

Hourly Weather History & Observations

Time (EDT) Temp. Heat Index Dew Point Humidity Pressure Visibility Wind Dir Wind Speed Gust Speed Precip Events Conditions
12:15 AM 71.2 °F - 64.4 °F 79% 30.16 in 10.0 mi Calm Calm - N/A   Clear
12:35 AM 69.8 °F - 64.9 °F 84% 30.16 in 10.0 mi Calm Calm - N/A   Clear
12:55 AM 68.4 °F - 64.9 °F 89% 30.16 in 7.0 mi Calm Calm - N/A   Clear
1:15 AM 68.5 °F - 64.8 °F 88% 30.16 in 10.0 mi South 3.5 mph - N/A   Clear
1:35 AM 68.2 °F - 64.6 °F 88% 30.17 in 10.0 mi South 4.6 mph - N/A   Clear
1:55 AM 68.4 °F - 64.6 °F 88% 30.17 in 10.0 mi SSW 3.5 mph - N/A   Clear
2:15 AM 68.2 °F - 64.8 °F 89% 30.17 in 10.0 mi SSW 4.6 mph - N/A   Clear
2:35 AM 68.2 °F - 65.1 °F 90% 30.17 in 7.0 mi SW 3.5 mph - N/A   Clear
2:55 AM 67.8 °F - 64.9 °F 90% 30.17 in 7.0 mi SW 4.6 mph - N/A   Clear
3:15 AM 68.0 °F - 65.3 °F 91% 30.17 in 7.0 mi SSW 4.6 mph - N/A   Clear
3:35 AM 68.0 °F - 65.3 °F 91% 30.17 in 7.0 mi SSW 4.6 mph - N/A   Clear
3:55 AM 68.0 °F - 65.5 °F 92% 30.16 in 5.0 mi SSW 3.5 mph - N/A   Clear
4:15 AM 68.0 °F - 65.5 °F 92% 30.16 in 5.0 mi South 4.6 mph - N/A   Clear
4:35 AM 67.3 °F - 65.3 °F 93% 30.16 in 5.0 mi SSW 3.5 mph - N/A   Clear
4:55 AM 67.1 °F - 65.3 °F 94% 30.16 in 4.0 mi SSW 3.5 mph - N/A   Clear
5:15 AM 66.6 °F - 64.8 °F 94% 30.16 in 3.0 mi SW 3.5 mph - N/A   Clear
5:35 AM 66.7 °F - 64.9 °F 94% 30.17 in 4.0 mi Calm Calm - N/A   Clear
5:55 AM 66.6 °F - 64.9 °F 95% 30.17 in 2.5 mi Calm Calm - N/A   Clear
6:15 AM 66.6 °F - 64.9 °F 95% 30.18 in 1.0 mi Calm Calm - N/A   Mist
6:35 AM 66.7 °F - 65.3 °F 95% 30.18 in 1.2 mi Calm Calm - N/A   Mist
6:55 AM 68.0 °F - 66.4 °F 95% 30.18 in 2.0 mi Calm Calm - N/A   Clear
7:15 AM 69.4 °F - 67.8 °F 95% 30.19 in 3.0 mi SW 4.6 mph - N/A   Clear
7:35 AM 71.4 °F - 68.4 °F 90% 30.19 in 5.0 mi SW 4.6 mph - N/A   Clear
7:55 AM 73.4 °F - 69.1 °F 86% 30.19 in 7.0 mi WSW 6.9 mph - N/A   Clear
8:15 AM 75.4 °F - 69.4 °F 82% 30.19 in 7.0 mi WSW 6.9 mph - N/A   Clear
8:35 AM 76.6 °F - 68.7 °F 76% 30.19 in 10.0 mi WSW 8.1 mph - N/A   Clear
8:55 AM 78.6 °F - 67.6 °F 69% 30.19 in 10.0 mi WSW 6.9 mph - N/A   Clear
9:15 AM 79.7 °F - 67.1 °F 65% 30.20 in 10.0 mi WSW 9.2 mph - N/A   Clear
9:35 AM 81.3 °F 84.0 °F 67.5 °F 63% 30.19 in 10.0 mi WSW 9.2 mph - N/A   Clear
9:55 AM 82.8 °F 85.5 °F 67.6 °F 60% 30.19 in 10.0 mi WSW 8.1 mph - N/A   Clear
10:15 AM 84.0 °F 87.0 °F 67.8 °F 58% 30.19 in 10.0 mi West 4.6 mph - N/A   Clear
10:35 AM 85.1 °F 87.4 °F 66.4 °F 53% 30.18 in 10.0 mi West 6.9 mph - N/A   Clear
10:55 AM 86.7 °F 89.6 °F 66.9 °F 52% 30.18 in 10.0 mi West 6.9 mph - N/A   Clear
11:15 AM 87.8 °F 89.7 °F 65.5 °F 47% 30.18 in 10.0 mi SW 5.8 mph - N/A   Clear
11:35 AM 88.0 °F 89.0 °F 63.7 °F 44% 30.18 in 10.0 mi WNW 6.9 mph - N/A   Clear
11:55 AM 89.1 °F 89.6 °F 62.8 °F 41% 30.17 in 10.0 mi WNW 5.8 mph - N/A   Clear
12:15 PM 89.2 °F 89.9 °F 62.4 °F 41% 30.17 in 10.0 mi West 6.9 mph - N/A   Clear
12:35 PM 90.0 °F 90.6 °F 62.4 °F 40% 30.17 in 10.0 mi NW 4.6 mph - N/A   Clear
12:55 PM 90.7 °F 91.0 °F 62.1 °F 38% 30.16 in 10.0 mi West 8.1 mph - N/A   Clear
1:15 PM 90.3 °F 90.5 °F 61.5 °F 38% 30.16 in 10.0 mi WNW 4.6 mph - N/A   Clear
1:35 PM 91.4 °F 91.4 °F 61.0 °F 36% 30.15 in 10.0 mi Calm Calm - N/A   Clear
1:55 PM 90.9 °F 90.9 °F 61.5 °F 37% 30.14 in 10.0 mi WSW 5.8 mph - N/A   Clear
2:15 PM 91.6 °F 91.3 °F 60.3 °F 35% 30.14 in 10.0 mi WNW 5.8 mph - N/A   Scattered Clouds
2:35 PM 92.3 °F 92.0 °F 60.4 °F 34% 30.13 in 10.0 mi West 5.8 mph - N/A   Clear
2:55 PM 91.9 °F 92.2 °F 61.7 °F 36% 30.12 in 10.0 mi WSW 8.1 mph - N/A   Scattered Clouds
3:15 PM 91.6 °F 91.0 °F 59.9 °F 34% 30.11 in 10.0 mi NNW 4.6 mph - N/A   Scattered Clouds
3:55 PM 93.2 °F 92.6 °F 59.0 °F 32% 30.10 in 10.0 mi WNW 5.8 mph - N/A   Scattered Clouds
4:35 PM 90.7 °F 90.4 °F 60.3 °F 36% 30.10 in 10.0 mi West 3.5 mph - N/A   Scattered Clouds
4:55 PM 92.7 °F 92.5 °F 60.1 °F 34% 30.10 in 10.0 mi WSW 6.9 mph - N/A   Clear
5:15 PM 90.7 °F 90.1 °F 59.4 °F 35% 30.10 in 10.0 mi WSW 3.5 mph - N/A   Clear
5:35 PM 91.8 °F 91.2 °F 59.4 °F 34% 30.09 in 10.0 mi SW 6.9 mph - N/A   Scattered Clouds
5:55 PM 90.7 °F 90.4 °F 60.6 °F 36% 30.09 in 10.0 mi West 4.6 mph - N/A   Scattered Clouds
6:15 PM 91.4 °F 91.7 °F 62.1 °F 37% 30.08 in 10.0 mi WSW 3.5 mph - N/A   Clear
6:35 PM 90.5 °F 90.4 °F 61.2 °F 37% 30.09 in 10.0 mi WSW 4.6 mph - N/A   Clear
6:55 PM 87.4 °F 88.0 °F 62.2 °F 43% 30.09 in 10.0 mi West 3.5 mph - N/A   Clear
7:15 PM 86.4 °F 87.3 °F 63.1 °F 46% 30.09 in 10.0 mi Calm Calm - N/A   Clear
7:35 PM 85.6 °F 86.8 °F 64.0 °F 48% 30.09 in 10.0 mi Calm Calm - N/A   Scattered Clouds
7:55 PM 85.1 °F 86.6 °F 64.6 °F 50% 30.10 in 10.0 mi Calm Calm - N/A   Scattered Clouds
8:15 PM 85.1 °F 86.4 °F 64.0 °F 49% 30.10 in 10.0 mi Calm Calm - N/A   Scattered Clouds
8:35 PM 82.2 °F 84.2 °F 65.8 °F 57% 30.10 in 10.0 mi WSW 4.6 mph - N/A   Clear
8:55 PM 80.4 °F 82.6 °F 66.4 °F 62% 30.12 in 10.0 mi East 9.2 mph - N/A   Scattered Clouds
9:15 PM 78.1 °F - 64.8 °F 63% 30.13 in 10.0 mi SE 4.6 mph - N/A   Clear
9:35 PM 76.5 °F - 64.4 °F 66% 30.13 in 10.0 mi East 6.9 mph - N/A   Clear
9:55 PM 75.4 °F - 64.4 °F 69% 30.12 in 10.0 mi Calm Calm - N/A   Clear
10:15 PM 75.0 °F - 64.4 °F 69% 30.13 in 10.0 mi Calm Calm - N/A   Clear
10:35 PM 74.3 °F - 64.4 °F 71% 30.13 in 10.0 mi Calm Calm - N/A   Clear
10:55 PM 72.5 °F - 64.6 °F 76% 30.13 in 10.0 mi Calm Calm - N/A   Clear
11:15 PM 72.9 °F - 65.3 °F 77% 30.13 in 10.0 mi SSW 3.5 mph - N/A   Clear
11:35 PM 73.6 °F - 64.8 °F 74% 30.12 in 10.0 mi Calm Calm - N/A   Clear
11:55 PM 73.6 °F - 64.9 °F 74% 30.12 in 10.0 mi Calm Calm - N/A   Clear